Hourly Weather Bolshie Peti

Today, 17 June, Thursday

Time Temperature Precipitation Wind Pressure Humidity
00:00 +12°C° 0 mm 1 mps 759 mmHg 67%
01:00 +12°C° 0 mm 1 mps 759 mmHg 68%
02:00 +12°C° 0 mm 1 mps 759 mmHg 68%
03:00 +12°C° 0 mm 1 mps 760 mmHg 70%
04:00 +13°C° 0 mm 1 mps 760 mmHg 72%
05:00 +13°C° 0 mm 1 mps 760 mmHg 73%
06:00 +15°C° 0 mm 1 mps 760 mmHg 67%
07:00 +19°C° 0 mm 1 mps 760 mmHg 60%
08:00 +21°C° 0 mm 1 mps 761 mmHg 53%
09:00 +22°C° 0 mm 1 mps 761 mmHg 49%
10:00 +24°C° 0 mm 1 mps 761 mmHg 44%
11:00 +25°C° 0 mm 1 mps 761 mmHg 40%
12:00 +25°C° 0 mm 1 mps 761 mmHg 39%
13:00 +26°C° 0 mm 1 mps 761 mmHg 37%
14:00 +27°C° 0 mm 1 mps 761 mmHg 36%
15:00 +26°C° 0 mm 1 mps 761 mmHg 37%
16:00 +26°C° 0 mm 1 mps 761 mmHg 39%
17:00 +26°C° 0 mm 1 mps 761 mmHg 41%
18:00 +24°C° 0 mm 1 mps 761 mmHg 50%
19:00 +22°C° 0 mm 1 mps 761 mmHg 59%
20:00 +19°C° 0 mm 0 mps 761 mmHg 68%
21:00 +20°C° 0 mm 1 mps 761 mmHg 68%
22:00 +19°C° 0 mm 1 mps 761 mmHg 68%
23:00 +18°C° 0 mm 1 mps 761 mmHg 68%

Tomorrow, 18 June, Friday

Time Temperature Precipitation Wind Pressure Humidity
00:00 +16°C° 0 mm 1 mps 761 mmHg 71%
01:00 +16°C° 0 mm 2 mps 761 mmHg 73%
02:00 +15°C° 0 mm 2 mps 761 mmHg 76%
03:00 +15°C° 0 mm 2 mps 761 mmHg 77%
04:00 +16°C° 0 mm 1 mps 761 mmHg 78%
05:00 +16°C° 0 mm 1 mps 762 mmHg 80%
06:00 +18°C° 0 mm 2 mps 762 mmHg 72%
07:00 +20°C° 0 mm 2 mps 762 mmHg 64%
08:00 +23°C° 0 mm 2 mps 762 mmHg 56%
09:00 +25°C° 0 mm 3 mps 761 mmHg 51%
10:00 +26°C° 0 mm 3 mps 761 mmHg 47%
11:00 +27°C° 0 mm 3 mps 761 mmHg 42%
12:00 +28°C° 0 mm 3 mps 761 mmHg 41%
13:00 +29°C° 0 mm 3 mps 760 mmHg 39%
14:00 +29°C° 0 mm 3 mps 760 mmHg 37%
15:00 +29°C° 0 mm 3 mps 760 mmHg 40%
16:00 +29°C° 0 mm 3 mps 760 mmHg 42%
17:00 +29°C° 0 mm 3 mps 759 mmHg 44%
18:00 +27°C° 0 mm 2 mps 759 mmHg 54%
19:00 +25°C° 0 mm 2 mps 759 mmHg 64%
20:00 +23°C° 0 mm 2 mps 759 mmHg 73%
21:00 +21°C° 0 mm 2 mps 760 mmHg 76%
22:00 +19°C° 0 mm 2 mps 760 mmHg 78%
23:00 +18°C° 0 mm 2 mps 760 mmHg 81%

Day after tomorrow, 19 June, Saturday

Time Temperature Precipitation Wind Pressure Humidity
00:00 +18°C° 0 mm 2 mps 760 mmHg 84%
01:00 +17°C° 0 mm 2 mps 760 mmHg 87%
02:00 +16°C° 0 mm 2 mps 760 mmHg 90%
03:00 +17°C° 0 mm 2 mps 760 mmHg 89%
04:00 +17°C° 0 mm 2 mps 760 mmHg 88%
05:00 +17°C° 0 mm 2 mps 760 mmHg 86%
06:00 +19°C° 0 mm 2 mps 760 mmHg 78%
07:00 +23°C° 0 mm 2 mps 760 mmHg 69%
08:00 +25°C° 0 mm 3 mps 760 mmHg 61%
09:00 +26°C° 0 mm 3 mps 760 mmHg 56%
10:00 +27°C° 0 mm 3 mps 760 mmHg 50%
11:00 +28°C° 0 mm 3 mps 760 mmHg 45%
12:00 +29°C° 0 mm 3 mps 760 mmHg 44%
13:00 +30°C° 0 mm 3 mps 759 mmHg 42%
14:00 +30°C° 0 mm 3 mps 759 mmHg 40%
15:00 +30°C° 0 mm 3 mps 759 mmHg 42%
16:00 +30°C° 0 mm 3 mps 758 mmHg 43%
17:00 +30°C° 0 mm 3 mps 758 mmHg 45%
18:00 +28°C° 0 mm 2 mps 758 mmHg 54%
19:00 +26°C° 0 mm 2 mps 758 mmHg 63%
20:00 +24°C° 0 mm 1 mps 758 mmHg 72%
21:00 +23°C° 0 mm 2 mps 758 mmHg 74%
22:00 +21°C° 0 mm 2 mps 758 mmHg 76%
23:00 +20°C° 0 mm 2 mps 758 mmHg 77%

20 June, Sunday

Time Temperature Precipitation Wind Pressure Humidity
00:00 +19°C° 0 mm 2 mps 758 mmHg 81%
01:00 +19°C° 0 mm 2 mps 758 mmHg 85%
02:00 +18°C° 0 mm 2 mps 758 mmHg 89%
03:00 +18°C° 0 mm 2 mps 758 mmHg 88%
04:00 +19°C° 0 mm 2 mps 758 mmHg 88%
05:00 +19°C° 0 mm 2 mps 758 mmHg 87%
06:00 +21°C° 0 mm 2 mps 758 mmHg 79%
07:00 +24°C° 0 mm 2 mps 758 mmHg 72%
08:00 +26°C° 0 mm 3 mps 758 mmHg 64%
09:00 +27°C° 0 mm 3 mps 758 mmHg 59%
10:00 +28°C° 0 mm 3 mps 758 mmHg 53%
11:00 +30°C° 0 mm 3 mps 758 mmHg 47%
12:00 +30°C° 0 mm 3 mps 758 mmHg 45%
13:00 +31°C° 0 mm 3 mps 757 mmHg 42%
14:00 +31°C° 0 mm 3 mps 757 mmHg 40%
15:00 +31°C° 0 mm 3 mps 757 mmHg 41%
16:00 +31°C° 0 mm 3 mps 757 mmHg 42%
17:00 +31°C° 0 mm 2 mps 756 mmHg 43%
18:00 +29°C° 0 mm 2 mps 756 mmHg 52%
19:00 +27°C° 0 mm 1 mps 756 mmHg 61%
20:00 +25°C° 0 mm 1 mps 756 mmHg 71%
21:00 +24°C° 0 mm 1 mps 756 mmHg 73%
22:00 +23°C° 0 mm 1 mps 757 mmHg 74%
23:00 +22°C° 0 mm 1 mps 757 mmHg 76%

21 June, Monday

Time Temperature Precipitation Wind Pressure Humidity
00:00 +21°C° 0 mm 1 mps 757 mmHg 80%
01:00 +21°C° 0 mm 1 mps 757 mmHg 85%
02:00 +20°C° 0 mm 1 mps 757 mmHg 89%
03:00 +21°C° 0 mm 1 mps 757 mmHg 89%
04:00 +21°C° 0 mm 1 mps 757 mmHg 89%
05:00 +22°C° 0 mm 1 mps 757 mmHg 89%
06:00 +24°C° 0 mm 1 mps 757 mmHg 81%
07:00 +26°C° 0 mm 1 mps 757 mmHg 73%
08:00 +27°C° 0 mm 2 mps 757 mmHg 66%
09:00 +29°C° 0 mm 2 mps 757 mmHg 60%
10:00 +30°C° 0 mm 2 mps 757 mmHg 54%
11:00 +31°C° 0 mm 3 mps 757 mmHg 48%
12:00 +33°C° 0 mm 3 mps 757 mmHg 45%
13:00 +33°C° 0 mm 3 mps 756 mmHg 43%
14:00 +34°C° 0 mm 3 mps 756 mmHg 40%
15:00 +34°C° 0 mm 3 mps 756 mmHg 43%
16:00 +33°C° 0 mm 3 mps 756 mmHg 45%
17:00 +33°C° 0 mm 3 mps 756 mmHg 48%
18:00 +30°C° 0 mm 2 mps 756 mmHg 56%
19:00 +28°C° 0 mm 2 mps 756 mmHg 64%
20:00 +26°C° 0 mm 2 mps 756 mmHg 72%
21:00 +25°C° 0 mm 2 mps 756 mmHg 73%
22:00 +24°C° 0 mm 2 mps 756 mmHg 74%
23:00 +24°C° 0 mm 2 mps 756 mmHg 74%

22 June, Tuesday

Time Temperature Precipitation Wind Pressure Humidity
00:00 +23°C° 0.1 mm 2 mps 756 mmHg 78%
01:00 +22°C° 0.1 mm 1 mps 756 mmHg 82%
02:00 +22°C° 0.1 mm 1 mps 756 mmHg 86%
03:00 +22°C° 0 mm 1 mps 756 mmHg 86%
04:00 +21°C° 0 mm 2 mps 756 mmHg 86%
05:00 +21°C° 0 mm 2 mps 756 mmHg 86%
06:00 +24°C° 0 mm 2 mps 756 mmHg 77%
07:00 +26°C° 0 mm 3 mps 756 mmHg 68%
08:00 +28°C° 0 mm 3 mps 756 mmHg 59%
09:00 +29°C° 0 mm 4 mps 756 mmHg 54%
10:00 +30°C° 0 mm 4 mps 756 mmHg 48%
11:00 +33°C° 0 mm 4 mps 756 mmHg 43%
12:00 +33°C° 0 mm 4 mps 755 mmHg 40%
13:00 +34°C° 0 mm 4 mps 755 mmHg 38%
14:00 +35°C° 0 mm 4 mps 755 mmHg 35%
15:00 +34°C° 0 mm 4 mps 755 mmHg 37%
16:00 +34°C° 0 mm 4 mps 755 mmHg 38%
17:00 +34°C° 0 mm 4 mps 755 mmHg 40%
18:00 +31°C° 0 mm 3 mps 755 mmHg 49%
19:00 +29°C° 0 mm 3 mps 754 mmHg 58%
20:00 +27°C° 0 mm 2 mps 754 mmHg 67%
21:00 +26°C° 0 mm 2 mps 755 mmHg 68%
22:00 +25°C° 0 mm 2 mps 755 mmHg 70%
23:00 +25°C° 0 mm 2 mps 755 mmHg 71%
Show more